Weather History for Madisonville, KY

Change the Weather History Date:

Saturday, December 8, 2012

  Actual Average (KOWB) Record (KOWB)
Temperature  
Mean Temperature 56 °F -  
Max Temperature 60 °F 48 °F 69 °F (1966)
Min Temperature 51 °F 31 °F 10 °F (1937)
Degree Days  
Heating Degree Days 10    
Growing Degree Days 6 (Base 50)    
Moisture  
Dew Point 56 °F    
Average Humidity 96    
Maximum Humidity 100    
Minimum Humidity 83    
Precipitation  
Precipitation 0.02 in - - ()
Sea Level Pressure  
Sea Level Pressure 29.93 in    
Wind  
Wind Speed 6 mph (North)    
Max Wind Speed 13 mph    
Max Gust Speed -    
Visibility 6 miles    
Events Rain    
Averages and records for this station are not official NWS values.
T = Trace of Precipitation, MM = Missing Value Source: NWS Daily Summary

Daily Weather History Graph

Daily Weather History Graph

Search for Another Location

Airport:

Trip Planner

Search our weather history database for the weather conditions in past years. The results will help you decide how hot, cold, wet, or windy it might be!

Date:

Astronomy

Dec. 08, 2012 Rise Set
Actual Time 6:51 AM CST 4:31 PM CST
Civil Twilight 6:22 AM CST 5:00 PM CST
Nautical Twilight 5:50 AM CST 5:33 PM CST
Astronomical Twilight 5:18 AM CST 6:04 PM CST
Moon 1:21 AM CST (12/8) 12:56 PM CST (12/8)
Length of Visible Light 10h 38m
Length of Day
9h 39m
Waning Crescent, 28% of the Moon is Illuminated
Dec 8
Waning Crescent
Dec 13
New
Dec 19
First Quarter
Dec 28
Full
Jan 4
Last Quarter

Hourly Weather History & Observations

Time (CST) Temp. Dew Point Humidity Pressure Visibility Wind Dir Wind Speed Gust Speed Precip Events Conditions
12:15 AM 59.4 °F 59.4 °F 100% 29.87 in 4.0 mi SSW 3.5 mph - 0.01 in Rain Light Rain
12:35 AM 59.5 °F 59.5 °F 100% 29.87 in 5.0 mi SW 4.6 mph - 0.01 in Rain Rain
12:55 AM 59.9 °F 59.9 °F 100% 29.86 in 5.0 mi SSW 6.9 mph - 0.01 in   Overcast
1:15 AM 59.9 °F 59.9 °F 100% 29.86 in 5.0 mi SSW 5.8 mph - N/A   Overcast
1:35 AM 60.1 °F 60.1 °F 100% 29.86 in 5.0 mi SW 6.9 mph - N/A   Overcast
1:55 AM 60.1 °F 60.1 °F 100% 29.87 in 5.0 mi SW 5.8 mph - N/A   Overcast
2:15 AM 59.9 °F 59.9 °F 100% 29.87 in 5.0 mi SSW 5.8 mph - N/A   Overcast
2:35 AM 59.9 °F 59.9 °F 100% 29.87 in 5.0 mi SSW 5.8 mph - N/A   Overcast
2:55 AM 59.9 °F 59.9 °F 100% 29.87 in 5.0 mi SSW 5.8 mph - N/A   Overcast
3:15 AM 59.9 °F 59.9 °F 100% 29.86 in 5.0 mi SSW 8.1 mph - N/A   Overcast
3:35 AM 60.1 °F 59.9 °F 99% 29.86 in 7.0 mi SW 8.1 mph - N/A   Overcast
3:55 AM 60.1 °F 59.9 °F 99% 29.87 in 7.0 mi SW 6.9 mph - N/A   Overcast
4:15 AM 60.3 °F 59.5 °F 97% 29.87 in 7.0 mi SW 8.1 mph - N/A   Overcast
4:35 AM 60.1 °F 59.4 °F 97% 29.86 in 7.0 mi SW 9.2 mph - N/A   Overcast
5:15 AM 59.9 °F 59.2 °F 97% 29.87 in 7.0 mi SW 6.9 mph - N/A   Overcast
5:35 AM 59.4 °F 59.0 °F 99% 29.88 in 7.0 mi SW 6.9 mph - N/A   Overcast
5:55 AM 59.4 °F 59.0 °F 99% 29.89 in 7.0 mi SW 6.9 mph - N/A   Overcast
6:15 AM 59.2 °F 58.5 °F 97% 29.89 in 7.0 mi SW 5.8 mph - N/A   Overcast
6:35 AM 59.2 °F 58.6 °F 98% 29.90 in 7.0 mi WSW 9.2 mph - N/A   Overcast
6:55 AM 59.4 °F 58.5 °F 97% 29.90 in 5.0 mi WSW 6.9 mph - N/A   Overcast
7:15 AM 59.0 °F 58.1 °F 97% 29.90 in 4.0 mi WSW 5.8 mph - N/A   Overcast
7:35 AM 59.0 °F 58.1 °F 97% 29.91 in 5.0 mi WSW 6.9 mph - N/A   Overcast
7:55 AM 59.2 °F 58.3 °F 97% 29.91 in 5.0 mi WSW 6.9 mph - N/A   Overcast
8:15 AM 59.2 °F 58.3 °F 97% 29.92 in 5.0 mi West 6.9 mph - N/A   Overcast
8:35 AM 59.5 °F 58.6 °F 97% 29.93 in 5.0 mi West 6.9 mph - N/A   Overcast
8:55 AM 59.7 °F 58.8 °F 97% 29.93 in 5.0 mi West 6.9 mph - N/A   Overcast
9:15 AM 59.9 °F 58.8 °F 96% 29.93 in 5.0 mi West 9.2 mph - N/A   Overcast
9:35 AM 59.9 °F 58.6 °F 96% 29.95 in 5.0 mi North 10.4 mph - N/A   Overcast
9:55 AM 55.8 °F 54.9 °F 97% 29.95 in 5.0 mi North 9.2 mph - N/A Rain Light Rain
10:15 AM 55.9 °F 55.0 °F 97% 29.95 in 5.0 mi NNE 8.1 mph - N/A   Overcast
10:35 AM 55.9 °F 54.9 °F 96% 29.96 in 7.0 mi North 6.9 mph - N/A   Overcast
10:55 AM 56.3 °F 55.2 °F 96% 29.95 in 7.0 mi NNE 3.5 mph - N/A   Overcast
11:15 AM 57.0 °F 55.2 °F 94% 29.95 in 10.0 mi North 3.5 mph - N/A   Overcast
11:35 AM 57.7 °F 55.2 °F 91% 29.94 in 10.0 mi NNE 3.5 mph - N/A   Overcast
11:55 AM 58.1 °F 55.6 °F 91% 29.94 in 10.0 mi NNE 3.5 mph - N/A   Overcast
12:15 PM 58.1 °F 55.2 °F 90% 29.94 in 10.0 mi North 3.5 mph - 0.01 in   Overcast
12:35 PM 58.5 °F 55.2 °F 89% 29.94 in 10.0 mi NNE 3.5 mph - 0.01 in   Overcast
12:55 PM 59.0 °F 54.9 °F 86% 29.93 in 10.0 mi NNE 4.6 mph - 0.01 in   Overcast
1:15 PM 58.5 °F 54.5 °F 87% 29.92 in 10.0 mi NNE 4.6 mph - N/A   Overcast
1:35 PM 59.0 °F 54.3 °F 84% 29.92 in 10.0 mi North 8.1 mph - N/A   Overcast
1:55 PM 59.2 °F 54.7 °F 85% 29.92 in 10.0 mi NNE 5.8 mph - N/A   Scattered Clouds
2:15 PM 59.9 °F 54.7 °F 83% 29.92 in 10.0 mi NNE 6.9 mph - N/A   Scattered Clouds
2:35 PM 58.3 °F 54.9 °F 88% 29.92 in 10.0 mi NNE 6.9 mph - N/A   Mostly Cloudy
2:55 PM 58.3 °F 54.9 °F 88% 29.92 in 10.0 mi North 8.1 mph - N/A   Overcast
3:15 PM 57.7 °F 54.7 °F 90% 29.93 in 10.0 mi North 10.4 mph - N/A   Overcast
3:35 PM 56.8 °F 54.5 °F 92% 29.93 in 7.0 mi North 9.2 mph - N/A   Overcast
3:55 PM 55.4 °F 53.8 °F 94% 29.94 in 5.0 mi North 10.4 mph - N/A   Overcast
4:15 PM 54.7 °F 53.6 °F 96% 29.94 in 4.0 mi North 12.7 mph - N/A   Overcast
4:35 PM 54.0 °F 52.9 °F 96% 29.95 in 5.0 mi NNE 9.2 mph - N/A   Overcast
4:55 PM 53.6 °F 52.7 °F 97% 29.95 in 5.0 mi NNE 9.2 mph - N/A   Overcast
5:15 PM 53.4 °F 52.7 °F 97% 29.96 in 5.0 mi NNE 8.1 mph - N/A   Overcast
5:35 PM 53.2 °F 52.7 °F 98% 29.96 in 5.0 mi North 8.1 mph - N/A   Overcast
5:55 PM 52.9 °F 52.3 °F 98% 29.96 in 5.0 mi NNE 9.2 mph - N/A   Overcast
6:15 PM 52.9 °F 52.2 °F 97% 29.96 in 5.0 mi NNE 8.1 mph - N/A   Overcast
6:35 PM 52.9 °F 52.3 °F 98% 29.97 in 5.0 mi NNE 10.4 mph - N/A   Overcast
6:55 PM 52.7 °F 52.3 °F 99% 29.97 in 5.0 mi NE 9.2 mph - N/A   Overcast
7:15 PM 52.7 °F 52.0 °F 97% 29.97 in 5.0 mi NE 8.1 mph - N/A   Overcast
7:55 PM 52.0 °F 51.1 °F 97% 29.98 in 5.0 mi NE 8.1 mph - N/A   Overcast
8:15 PM 51.8 °F 50.9 °F 97% 29.98 in 5.0 mi NE 6.9 mph - N/A   Overcast
8:35 PM 51.6 °F 50.9 °F 97% 29.98 in 5.0 mi NE 5.8 mph - N/A   Overcast
8:55 PM 51.4 °F 50.9 °F 98% 29.98 in 5.0 mi NE 5.8 mph - N/A   Overcast
9:15 PM 51.4 °F 50.9 °F 98% 29.98 in 5.0 mi ENE 5.8 mph - N/A   Overcast
9:35 PM 51.4 °F 50.9 °F 98% 29.98 in 5.0 mi ENE 6.9 mph - N/A   Overcast
9:55 PM 51.4 °F 50.5 °F 97% 29.98 in 5.0 mi ENE 6.9 mph - N/A   Overcast
10:15 PM 51.3 °F 50.5 °F 97% 29.98 in 5.0 mi ENE 5.8 mph - N/A   Overcast
10:35 PM 51.4 °F 50.9 °F 98% 29.98 in 5.0 mi ESE 3.5 mph - N/A   Overcast
10:55 PM 51.6 °F 51.1 °F 98% 29.97 in 5.0 mi ESE 4.6 mph - N/A   Overcast
11:15 PM 51.8 °F 51.3 °F 98% 29.96 in 5.0 mi East 3.5 mph - N/A   Overcast
11:35 PM 52.0 °F 51.4 °F 98% 29.97 in 5.0 mi Calm Calm - N/A   Overcast
11:55 PM 52.0 °F 51.6 °F 99% 29.96 in 5.0 mi Calm Calm - N/A   Overcast